Temp
66 63 59 65 68 68 64 62 61 67 64 61 63 65 70 75 76 75 77 77 78 80 84 83 82 79 77 77 76 75 73 71 72 70 69 69 69 70 64 63 66 66 64 65
60 57 67 67 65 62 62 59 61 66 63 58 63 62 69 72 73 75 76 77 79 81 83 83 82 79 75 74 74 73 73 72 71 71 70 71 70 69 67 62 61 60 60 61
59 63 66 61 59 58 60 59 60 60 60 61 58 58 65 73 74 74 76 78 79 80 81 83 81 78 75 72 72 71 71 71 71 70 70 69 68 65 60 60 56 54 54 56
61 67 60 58 58 60 55 66 61 59 55 53 60 51 64 70 71 74 74 75 78 80 81 80 81 79 75 72 72 71 71 71 70 70 67 65 63 60 61 60 56 52 51 53
59 56 56 55 59 62 58 59 58 57 54 53 55 49 60 69 66 71 75 76 78 79 80 80 79 76 77 73 70 70 70 70 69 68 67 65 61 63 67 63 57 52 47 49
59 58 61 61 56 60 59 56 55 55 54 44 55 55 58 64 69 73 75 77 78 79 77 76 76 75 73 72 68 67 68 67 68 67 66 64 62 63 63 59 54 50 48 46
55 54 57 57 53 55 57 54 45 43 41 42 55 51 59 66 70 70 73 73 77 73 73 74 71 67 67 66 64 64 65 65 66 64 64 64 63 64 63 59 55 48 45 45
48 45 53 56 57 54 51 55 46 35 40 46 44 43 58 69 72 70 70 71 71 70 70 69 71 70 67 63 62 62 61 63 64 64 63 63 63 63 62 60 58 55 50 50
51 50 57 57 60 61 51 46 58 46 39 39 49 57 66 65 64 67 70 71 70 71 70 68 70 70 67 62 61 61 61 60 63 63 62 61 62 62 61 60 58 56 54 53
56 46 53 51 55 56 54 59 44 46 34 33 45 49 53 61 65 69 67 68 70 69 69 68 68 67 65 63 62 61 61 60 60 62 61 60 60 61 60 60 57 55 53 51
56 50 45 49 48 51 49 47 49 51 47 38 38 48 66 65 65 65 66 66 65 64 66 68 68 65 62 61 60 59 59 59 58 59 59 58 58 59 58 57 55 54 53 49
54 50 42 48 57 57 57 53 52 43 40 45 43 45 66 65 63 63 64 66 65 63 64 66 66 63 60 59 59 58 58 57 58 58 56 56 57 57 55 55 54 52 47 43
47 43 33 39 48 48 46 52 52 53 47 38 36 44 64 65 64 65 62 65 67 64 68 66 63 62 62 61 59 58 58 57 57 56 55 55 54 54 53 52 51 47 45 42
47 37 37 38 46 51 43 47 51 48 38 41 42 48 57 61 64 66 64 67 70 68 68 69 67 64 63 62 62 60 59 57 55 54 53 52 52 53 52 52 49 45 44 39
45 33 37 41 45 47 46 46 48 45 47 40 46 48 55 60 63 66 69 69 68 68 68 70 66 66 66 62 61 59 59 58 56 53 52 52 52 52 51 49 46 44 41 40
44 34 38 33 42 43 38 44 45 47 47 47 50 50 62 64 66 65 66 67 66 66 67 68 68 68 61 63 60 60 59 55 54 52 50 50 48 46 44 42 40 39 38 37
34 33 32 30 39 34 30 37 44 46 50 50 44 53 60 59 59 60 62 64 63 64 65 66 66 66 63 60 59 59 58 55 49 47 44 41 41 40 39 38 37 37 36 35
34 33 32 29 32 23 40 52 51 47 49 52 52 54 56 57 60 61 64 63 62 63 64 64 64 65 62 58 57 57 51 49 44 42 40 39 39 38 38 37 36 36 36 34
44 36 30 26 28 36 42 48 47 46 46 54 52 54 56 59 58 58 63 64 63 63 61 55 54 53 52 52 51 45 42 41 40 39 39 38 38 36 36 35 35 36 34 33
40 41 32 31 25 23 42 52 57 52 35 40 43 45 46 50 44 53 54 53 53 53 51 49 48 47 45 45 41 39 39 38 38 38 38 38 37 35 35 35 34 34 34 32
30 30 27 28 26 31 42 41 47 32 34 37 39 41 43 43 47 50 51 52 51 47 45 45 45 41 40 38 36 36 37 35 36 35 35 34 35 34 35 34 34 33 31 30
32 30 29 31 26 24 45 42 34 37 44 41 39 43 40 43 44 46 49 47 45 44 41 39 38 37 37 36 35 35 35 34 33 33 32 32 33 33 33 32 32 32 30 28
28 36 33 34 34 43 48 44 48 46 42 42 40 42 42 41 41 42 43 42 41 39 35 34 32 33 32 31 31 33 31 31 31 30 29 31 31 32 32 31 30 29 29 28
39 45 36 35 40 43 46 48 46 45 43 43 42 42 41 40 40 38 38 36 35 33 31 31 31 28 27 29 29 29 30 30 29 29 29 30 30 30 31 32 32 31 30 29
39 40 35 35 40 42 43 45 46 44 42 41 41 41 40 39 37 38 37 34 33 31 30 29 28 26 25 27 27 29 31 30 30 30 30 31 31 31 31 31 32 31 31 31
39 36 33 32 42 43 44 47 45 41 41 42 39 39 38 37 36 37 33 32 31 30 28 26 25 24 24 24 23 25 29 30 30 29 30 30 31 31 30 30 30 33 33 33
MSLP
1013.20 1012.86 1012.05 1011.68 1011.71 1011.60 1011.80 1011.46 1011.33 1011.28 1012.53 1012.65 1011.40 1010.24 1009.62 1009.24 1008.78 1008.54 1008.42 1008.25 1008.27 1008.13 1008.37 1009.15 1009.80 1010.85 1011.64 1012.32 1013.01 1013.57 1014.41 1015.29 1015.96 1016.40 1016.86 1017.28 1017.48 1018.11 1019.02 1019.38 1019.50 1019.65 1019.92 1020.43
1013.48 1012.50 1011.85 1011.92 1012.10 1012.42 1012.40 1012.01 1011.67 1011.61 1012.45 1012.94 1011.32 1009.68 1008.97 1008.59 1007.63 1007.63 1007.45 1007.06 1007.06 1006.96 1007.26 1007.90 1008.90 1009.83 1010.79 1011.44 1012.13 1012.94 1013.62 1014.50 1015.18 1015.75 1016.29 1016.80 1017.27 1017.72 1018.30 1019.19 1019.48 1019.58 1019.75 1020.19
1012.55 1012.16 1012.16 1012.56 1012.81 1012.84 1012.48 1012.25 1012.03 1012.03 1012.79 1012.52 1011.69 1009.22 1007.65 1006.84 1006.73 1006.82 1006.61 1006.45 1006.42 1006.18 1006.30 1006.87 1007.81 1008.98 1010.03 1010.72 1011.32 1011.96 1012.65 1013.45 1014.31 1015.01 1015.74 1016.53 1017.21 1017.64 1018.22 1018.48 1019.06 1019.26 1019.50 1019.93
1012.72 1012.32 1012.83 1012.97 1012.88 1013.06 1012.55 1012.32 1012.74 1012.70 1013.06 1011.97 1011.74 1008.37 1006.67 1006.22 1005.82 1005.68 1005.69 1005.70 1005.44 1005.51 1005.94 1006.53 1007.02 1007.73 1008.98 1009.90 1010.78 1011.40 1012.06 1012.73 1013.48 1014.28 1014.75 1015.13 1015.75 1016.39 1017.02 1017.69 1018.50 1019.01 1019.28 1019.77
1012.18 1012.87 1013.11 1013.10 1012.94 1013.34 1013.26 1013.41 1013.40 1013.44 1013.21 1012.55 1011.36 1010.29 1006.22 1005.55 1005.00 1004.92 1004.75 1004.71 1004.87 1005.05 1005.46 1005.92 1006.65 1007.49 1008.13 1009.34 1010.29 1011.05 1011.75 1012.36 1012.96 1013.55 1014.02 1014.50 1015.05 1015.45 1015.72 1016.73 1017.87 1018.68 1019.25 1019.54
1012.94 1013.67 1013.36 1013.34 1014.00 1013.98 1014.26 1014.21 1014.21 1014.04 1013.55 1011.97 1010.21 1009.29 1005.16 1004.86 1004.15 1004.04 1004.27 1004.32 1004.66 1004.94 1005.51 1006.16 1006.79 1007.41 1008.14 1009.07 1009.97 1010.74 1011.34 1011.90 1012.66 1013.36 1013.82 1014.02 1014.52 1014.92 1015.21 1016.12 1017.30 1018.07 1018.75 1019.52
1012.91 1013.23 1013.71 1014.02 1014.24 1014.75 1014.49 1014.19 1013.84 1013.57 1013.09 1010.73 1010.10 1009.04 1004.97 1004.98 1004.65 1004.64 1004.51 1004.58 1004.75 1005.53 1005.92 1006.35 1007.03 1007.82 1008.39 1008.88 1009.62 1010.29 1010.84 1011.18 1011.82 1012.53 1013.35 1013.84 1014.20 1014.46 1014.66 1015.52 1016.42 1017.41 1018.24 1018.87
1011.86 1012.05 1012.90 1013.38 1012.99 1013.40 1013.86 1013.32 1012.90 1012.17 1012.15 1010.96 1010.76 1007.95 1004.78 1004.77 1004.71 1004.89 1005.07 1005.05 1005.15 1005.66 1006.21 1006.70 1006.94 1007.52 1008.28 1009.11 1009.80 1010.26 1010.66 1010.88 1011.33 1011.77 1012.55 1013.46 1013.90 1014.15 1014.43 1015.11 1015.67 1016.21 1016.89 1017.73
1011.27 1011.56 1012.27 1012.84 1012.83 1012.93 1013.65 1013.32 1012.65 1012.84 1012.69 1012.37 1009.68 1006.42 1004.95 1004.84 1005.18 1005.06 1004.91 1004.97 1005.01 1005.51 1005.79 1006.36 1006.75 1007.28 1008.21 1009.02 1009.52 1010.06 1010.58 1011.25 1011.46 1011.77 1012.14 1012.83 1013.31 1013.68 1013.94 1014.66 1015.28 1015.83 1015.94 1016.80
1011.54 1011.81 1012.80 1013.64 1013.70 1013.30 1012.98 1012.82 1013.20 1013.14 1012.38 1011.29 1008.46 1006.78 1004.63 1004.57 1004.78 1004.80 1005.00 1005.12 1005.28 1005.74 1005.98 1006.30 1006.76 1007.26 1008.03 1008.77 1009.43 1010.00 1010.35 1010.84 1011.31 1011.52 1012.05 1012.39 1012.62 1013.06 1013.49 1014.11 1014.61 1015.35 1015.78 1016.38
1012.62 1013.01 1013.78 1014.09 1013.11 1012.38 1013.22 1012.89 1012.52 1012.02 1011.61 1010.23 1008.90 1005.81 1004.47 1004.35 1004.62 1004.85 1005.24 1005.77 1005.97 1006.08 1006.30 1006.53 1007.11 1007.80 1008.30 1009.08 1009.46 1009.83 1010.18 1010.57 1011.04 1011.37 1011.78 1012.18 1012.36 1012.74 1013.16 1013.57 1014.11 1014.76 1015.27 1016.03
1013.31 1013.50 1013.40 1012.90 1012.50 1012.41 1011.94 1011.37 1011.62 1011.34 1010.74 1010.74 1009.81 1006.11 1004.74 1004.91 1005.47 1005.68 1005.63 1005.77 1006.25 1006.81 1006.77 1007.05 1007.39 1008.18 1008.67 1009.02 1009.50 1009.59 1009.99 1010.40 1010.81 1011.19 1011.54 1011.62 1012.09 1012.46 1012.88 1013.16 1013.71 1014.45 1014.99 1015.66
1015.39 1014.89 1014.78 1013.75 1013.21 1013.24 1012.58 1011.58 1011.64 1011.21 1011.25 1010.40 1009.54 1006.71 1005.56 1005.15 1005.56 1005.69 1006.00 1005.90 1006.17 1006.42 1006.49 1006.96 1007.31 1007.97 1008.55 1008.95 1009.26 1009.46 1009.69 1009.98 1010.40 1010.95 1011.36 1011.43 1011.43 1011.89 1012.47 1013.02 1013.59 1014.25 1014.87 1015.64
1016.29 1016.44 1015.19 1013.08 1011.84 1011.84 1012.17 1011.79 1011.49 1011.54 1011.09 1009.67 1008.89 1006.86 1005.50 1005.40 1005.62 1005.56 1005.71 1005.54 1005.63 1006.00 1006.09 1006.32 1006.87 1007.19 1007.26 1007.89 1008.49 1008.67 1009.07 1009.42 1009.93 1010.38 1010.82 1010.92 1011.11 1010.87 1011.63 1012.38 1013.10 1013.74 1014.26 1015.14
1016.87 1016.65 1016.20 1014.75 1013.79 1012.96 1012.17 1011.95 1011.58 1011.36 1010.51 1010.20 1007.88 1007.91 1005.22 1005.41 1005.67 1005.28 1004.94 1005.08 1005.12 1005.14 1005.44 1005.41 1006.00 1006.52 1006.79 1007.30 1007.68 1008.09 1008.32 1008.76 1009.30 1009.94 1010.23 1010.31 1010.86 1010.77 1011.23 1011.85 1012.53 1013.41 1014.01 1014.58
1017.01 1016.73 1016.38 1014.95 1013.79 1013.57 1012.69 1011.99 1011.21 1010.65 1010.25 1009.96 1008.54 1007.01 1005.74 1005.21 1005.41 1005.26 1005.07 1005.19 1005.00 1004.98 1005.15 1005.30 1005.46 1005.86 1006.18 1006.42 1006.87 1007.10 1007.47 1007.97 1008.63 1009.05 1009.48 1010.05 1010.54 1010.68 1011.28 1011.93 1012.62 1013.26 1013.87 1014.49
1017.89 1017.30 1016.66 1014.71 1013.78 1013.81 1012.43 1010.12 1010.00 1009.64 1009.28 1008.83 1008.04 1006.38 1006.22 1005.51 1005.46 1005.32 1005.10 1005.38 1005.13 1004.93 1005.03 1005.08 1005.42 1005.62 1005.84 1006.16 1006.38 1006.55 1006.81 1007.33 1007.98 1008.56 1009.12 1009.69 1010.13 1010.47 1011.18 1012.01 1012.77 1013.22 1013.66 1014.34
1017.53 1017.76 1017.41 1015.55 1014.62 1013.13 1010.88 1009.44 1009.15 1008.74 1008.49 1008.57 1008.38 1007.63 1006.66 1006.14 1005.72 1004.97 1005.31 1005.48 1005.06 1005.30 1005.23 1005.36 1005.47 1005.70 1006.20 1006.53 1006.82 1006.93 1007.08 1007.29 1007.92 1008.60 1009.11 1009.58 1009.89 1010.34 1010.90 1011.63 1012.34 1012.98 1013.44 1014.04
1016.34 1016.99 1016.76 1016.12 1014.21 1012.21 1010.62 1009.08 1008.83 1008.68 1008.38 1008.85 1008.60 1008.19 1007.07 1006.14 1006.06 1004.90 1005.46 1005.41 1005.35 1005.60 1005.94 1006.42 1006.70 1007.00 1007.14 1007.19 1007.37 1007.53 1007.66 1007.90 1008.27 1008.63 1009.11 1009.63 1010.05 1010.50 1011.01 1011.60 1012.16 1012.65 1013.24 1013.91
1015.65 1015.70 1016.16 1015.18 1013.44 1011.39 1009.42 1008.54 1007.97 1008.64 1009.15 1010.76 1010.48 1009.77 1008.95 1007.91 1006.96 1006.02 1006.86 1006.86 1006.80 1007.19 1007.44 1007.68 1007.93 1007.98 1008.10 1007.94 1008.15 1008.11 1007.93 1007.99 1008.26 1008.56 1008.77 1009.14 1009.83 1010.55 1011.14 1011.53 1012.00 1012.60 1013.16 1013.82
1015.18 1015.10 1014.70 1013.78 1012.50 1011.34 1010.28 1009.90 1009.79 1010.12 1011.06 1011.36 1011.70 1010.87 1010.16 1009.59 1009.03 1008.62 1008.35 1007.90 1008.22 1008.37 1008.63 1008.75 1008.77 1008.83 1008.94 1008.92 1008.73 1008.69 1008.69 1008.61 1008.58 1008.72 1009.08 1009.32 1009.71 1010.26 1010.83 1011.50 1012.07 1012.67 1013.37 1014.13
1013.72 1013.77 1013.33 1012.87 1012.10 1010.71 1010.44 1010.42 1010.73 1011.05 1011.07 1011.48 1011.61 1011.08 1010.88 1010.79 1010.08 1009.18 1008.92 1009.15 1008.89 1009.02 1009.31 1009.65 1009.96 1009.88 1009.58 1009.56 1009.31 1009.28 1009.33 1009.43 1009.35 1009.36 1009.53 1009.92 1010.10 1010.47 1010.99 1011.57 1012.38 1013.02 1013.56 1014.27
1012.91 1012.21 1011.78 1011.65 1010.45 1010.19 1009.92 1010.48 1010.38 1010.69 1010.90 1011.00 1011.53 1011.38 1011.20 1010.74 1010.18 1009.95 1008.96 1009.66 1009.62 1009.78 1010.41 1010.30 1010.19 1010.25 1010.42 1010.25 1009.92 1009.89 1010.36 1009.99 1010.00 1010.14 1010.53 1010.72 1010.98 1011.22 1011.44 1011.85 1012.30 1013.05 1013.93 1014.50
1011.46 1011.36 1011.12 1011.02 1010.08 1009.73 1009.24 1009.87 1010.46 1010.73 1010.72 1010.63 1010.86 1011.01 1010.96 1010.83 1010.69 1010.36 1009.61 1009.93 1010.42 1010.56 1010.63 1011.00 1010.98 1011.05 1011.06 1010.98 1010.74 1010.52 1010.47 1010.62 1010.64 1010.60 1010.88 1011.50 1011.87 1012.16 1012.24 1012.54 1012.86 1013.07 1013.66 1014.44
1011.49 1011.06 1010.45 1010.33 1009.86 1010.02 1009.80 1009.85 1010.17 1010.58 1010.81 1010.64 1011.02 1011.13 1010.98 1010.53 1010.14 1010.48 1010.48 1010.58 1011.00 1010.88 1011.39 1011.70 1011.58 1011.80 1011.72 1011.77 1011.69 1011.32 1011.00 1010.89 1010.95 1011.10 1011.42 1011.88 1012.43 1012.90 1013.18 1013.08 1013.31 1013.46 1013.83 1014.48
1011.15 1010.68 1010.74 1009.72 1009.68 1009.82 1009.41 1009.63 1010.17 1010.63 1010.54 1010.54 1010.85 1010.65 1010.66 1010.80 1010.62 1010.71 1010.88 1011.43 1011.66 1011.60 1012.25 1012.29 1012.49 1012.60 1012.46 1012.28 1012.28 1012.44 1011.66 1011.48 1011.25 1011.55 1011.72 1011.99 1012.16 1013.06 1013.69 1013.75 1014.11 1014.21 1014.32 1014.72
Wind_Speed
4 9 10 14 14 14 6 7 9 2 4 5 11 18 17 17 19 19 19 20 19 20 18 16 16 16 16 17 18 19 18 17 12 10 10 9 9 8 5 5 9 9 7 10
5 13 14 3 0 6 10 13 14 14 3 5 13 21 18 18 23 20 20 21 20 19 18 16 15 15 17 18 18 17 17 17 15 10 9 8 9 8 8 8 8 9 8 11
16 2 8 7 7 10 14 15 13 14 2 13 13 17 17 16 17 15 20 21 21 21 19 16 16 17 15 18 18 19 19 18 16 15 9 8 6 7 7 8 6 6 7 9
12 8 6 10 15 12 16 12 14 12 8 8 2 11 17 17 18 15 15 18 19 17 15 14 13 16 17 16 16 17 17 17 16 17 13 17 12 11 9 9 6 6 6 8
5 9 12 13 10 10 4 3 5 6 9 11 14 10 8 11 10 15 17 16 15 13 12 10 12 12 12 12 13 13 15 16 16 16 16 13 12 9 7 8 10 9 6 7
6 1 5 7 4 6 9 6 4 2 5 11 13 16 12 14 11 7 6 7 6 6 5 5 5 4 9 8 10 11 14 15 15 15 16 16 15 12 9 9 9 7 6 5
13 10 4 3 6 4 10 7 4 6 7 13 6 7 14 9 9 10 11 12 11 2 4 5 6 7 9 10 11 11 15 16 16 16 16 16 15 14 13 11 9 10 6 6
15 12 16 14 16 10 15 15 8 10 8 13 5 12 9 2 6 8 10 13 11 8 6 8 7 6 7 8 10 12 12 13 14 15 15 13 15 10 9 12 10 9 9 9
12 13 4 3 11 15 8 12 13 14 2 5 11 21 19 11 8 14 15 15 14 10 7 8 9 7 6 8 9 10 11 11 12 13 12 13 13 13 10 12 11 9 10 9
8 17 4 4 3 8 9 2 8 8 7 12 15 19 16 10 13 13 10 10 9 7 6 7 6 6 5 6 7 8 9 10 11 11 11 11 13 13 12 11 11 11 10 9
11 7 4 4 12 15 9 11 8 6 10 8 12 14 12 8 7 5 5 4 6 9 9 7 3 3 4 5 6 7 8 9 9 10 10 11 11 13 12 11 10 10 9 10
9 6 13 19 6 7 14 22 23 11 12 7 11 21 0 6 4 4 9 9 3 3 4 4 2 2 3 5 6 7 8 8 9 10 11 12 12 11 12 12 12 11 9 7
4 6 3 5 11 2 8 15 14 15 9 10 13 15 3 6 4 10 7 4 5 4 4 2 3 3 5 6 6 7 8 9 9 10 11 11 13 13 13 12 11 10 10 10
6 4 10 11 6 4 6 17 19 17 11 19 19 27 26 22 19 10 9 8 9 8 7 7 5 7 7 7 8 7 9 9 9 10 11 13 15 15 13 13 13 12 12 12
2 5 13 21 22 23 20 14 12 19 23 23 27 24 33 23 20 20 20 17 19 18 17 15 8 9 9 9 10 10 10 9 10 11 12 14 12 12 12 12 10 10 11 10
8 6 9 18 22 19 20 22 24 24 25 24 27 28 28 23 20 19 21 20 20 18 17 18 18 12 9 10 9 9 10 10 11 13 14 12 11 9 8 7 9 10 9 9
3 1 3 12 11 6 8 23 24 27 27 24 24 28 23 24 20 20 20 14 17 18 19 19 17 13 8 8 10 10 10 8 11 12 9 7 7 8 8 8 9 10 10 9
8 7 3 7 8 11 6 10 9 15 20 21 24 26 27 26 28 29 19 17 20 19 19 15 13 12 7 6 6 6 5 4 6 8 7 7 8 9 9 10 10 9 9 10
18 12 9 12 18 20 24 22 13 14 19 16 16 20 25 26 23 26 16 15 18 16 11 7 7 8 8 7 6 5 4 5 5 7 7 7 8 8 9 10 10 9 8 8
12 16 12 12 12 15 13 14 11 5 9 14 13 15 17 17 11 14 13 9 9 8 7 8 9 8 7 5 6 5 5 4 6 5 6 7 7 7 8 8 9 7 7 7
5 5 14 14 13 7 8 8 5 13 7 14 9 15 12 8 7 15 10 11 8 5 9 10 8 6 7 7 5 5 3 3 0 3 4 5 6 7 7 7 6 7 7 7
10 7 9 8 10 16 3 3 2 2 12 11 6 4 8 11 11 11 14 7 7 8 7 6 7 6 7 7 6 4 3 3 3 3 4 4 5 5 6 8 7 8 8 8
14 15 10 9 5 4 6 6 9 6 9 5 5 6 9 9 9 9 8 9 7 7 7 5 4 5 6 6 5 4 4 3 4 6 5 5 6 5 6 8 9 8 7 7
14 13 14 15 18 21 19 13 6 7 8 6 7 8 5 10 9 10 8 4 4 3 3 3 4 4 5 6 6 5 3 3 5 7 7 6 6 6 5 5 5 6 6 5
9 6 11 13 16 15 15 13 9 8 7 6 9 9 10 8 9 8 9 5 4 3 4 3 3 3 5 5 7 6 4 3 7 7 7 7 6 6 5 5 4 4 4 4
12 18 14 15 17 15 17 10 7 8 10 9 7 6 6 7 8 5 4 3 3 1 0 2 2 3 4 5 5 5 5 4 7 6 5 5 6 5 4 5 5 8 7 7
Wind_Direction
188 215 212 223 227 262 294 296 272 221 136 280 260 270 267 272 271 265 259 257 256 255 245 226 220 211 210 211 207 207 203 203 199 198 198 205 210 208 189 230 208 194 183 180
181 225 231 236 293 216 249 260 262 271 102 244 282 280 276 267 262 258 261 261 258 254 245 231 217 205 204 208 206 206 206 200 201 197 201 207 211 221 213 212 215 191 171 177
231 222 251 181 197 214 235 247 257 264 294 236 286 270 264 246 247 264 260 263 263 260 256 242 207 210 208 209 206 204 203 200 199 199 192 195 208 204 212 212 205 192 170 174
244 221 161 210 230 219 249 238 254 270 281 272 234 286 285 285 272 246 255 257 254 250 245 244 253 205 207 214 212 208 203 200 199 195 196 196 199 204 211 210 202 180 166 181
190 192 209 223 225 209 253 28 240 260 261 290 235 265 263 254 261 260 255 258 265 268 269 255 231 231 211 206 209 208 206 205 202 200 203 200 204 210 203 195 192 187 169 186
274 37 223 226 66 235 133 121 120 222 276 261 255 238 258 250 269 257 266 261 251 272 291 255 242 244 212 208 193 200 205 207 205 206 208 207 210 215 201 189 190 183 168 175
215 219 159 182 132 127 204 193 238 236 200 253 47 287 251 295 279 251 272 296 294 257 274 252 208 198 205 197 191 198 205 207 202 203 213 215 220 218 211 198 193 173 167 183
214 226 185 183 218 192 199 204 211 236 242 267 103 238 271 252 308 300 265 272 291 283 253 249 227 212 198 198 200 203 206 210 205 202 208 217 223 226 208 209 203 196 182 193
217 233 190 201 211 217 173 221 248 269 305 283 253 266 271 229 232 262 268 272 271 289 252 247 244 225 210 194 197 201 204 214 215 211 205 215 220 220 217 218 207 206 184 186
253 264 158 131 186 248 239 314 205 217 230 237 254 257 259 290 271 265 254 275 295 313 297 249 230 198 185 193 188 196 201 207 218 213 212 217 217 217 211 215 205 202 187 173
235 240 141 173 209 206 187 219 225 249 228 245 257 259 272 304 13 334 354 316 314 333 338 301 229 198 169 184 188 195 203 209 208 215 214 218 219 217 210 212 205 203 183 164
218 255 244 241 231 266 263 226 218 219 222 241 269 270 86 337 7 341 324 328 338 301 324 339 323 269 209 210 213 204 204 213 216 215 218 216 215 213 216 214 204 192 178 154
348 235 244 255 228 193 249 234 246 242 247 234 230 256 245 359 313 297 288 341 325 319 324 277 175 231 258 236 223 218 212 213 213 222 221 221 211 207 212 211 203 185 175 170
92 224 237 241 274 11 218 236 235 231 237 242 245 258 270 271 282 266 244 252 279 268 273 281 267 245 224 222 233 229 226 214 211 214 220 223 219 205 205 205 197 185 175 169
195 236 237 257 269 276 274 272 258 239 240 235 256 252 267 267 272 271 284 288 290 297 300 300 259 245 231 216 222 228 234 221 210 219 221 226 224 211 203 202 189 182 179 175
178 243 268 274 268 266 266 264 260 254 253 258 258 261 256 278 278 278 279 281 283 278 277 282 288 282 233 237 230 230 227 220 205 214 222 219 215 199 200 184 176 176 175 168
309 274 243 253 285 333 255 242 250 249 248 250 252 261 275 274 282 283 286 290 279 276 282 284 286 291 288 239 239 239 237 221 204 215 212 197 187 178 177 171 173 181 176 165
230 243 267 285 308 256 262 317 295 281 262 257 261 264 272 275 277 276 277 285 283 283 278 281 287 292 317 340 314 293 290 226 192 208 206 190 183 183 175 173 181 180 174 175
227 221 246 245 256 278 283 277 262 273 279 280 270 260 265 270 279 277 288 272 277 287 311 341 339 327 320 316 328 307 221 203 192 206 205 196 191 183 178 185 184 178 169 173
235 230 226 240 253 265 275 279 271 260 255 42 355 336 343 339 273 284 8 1 349 346 351 339 327 312 305 338 327 285 249 202 210 203 196 175 175 175 184 179 171 166 166 161
177 194 229 242 245 247 276 332 293 236 294 320 300 301 306 301 322 316 322 326 322 332 338 337 325 320 334 334 326 309 307 263 164 134 130 137 155 164 164 152 149 144 137 131
238 237 230 232 248 257 151 25 251 327 295 271 263 282 312 299 298 306 321 315 327 343 349 348 320 337 355 358 343 340 351 20 51 88 106 119 124 131 137 135 131 137 136 134
238 232 249 229 245 220 297 233 282 265 255 251 246 257 248 277 292 297 299 316 329 335 331 345 348 346 10 2 4 9 10 43 72 73 74 93 100 111 126 133 136 134 139 143
243 249 251 264 266 277 296 309 262 228 226 224 235 251 263 280 288 291 285 263 297 328 342 337 354 19 16 10 29 46 59 63 82 92 95 94 100 106 107 114 135 134 144 148
271 282 250 258 268 278 272 264 242 239 246 254 262 250 255 255 268 266 290 308 298 334 357 347 40 33 34 25 25 14 28 68 93 97 99 97 99 105 113 97 107 109 106 140
246 249 251 256 268 274 276 280 215 229 237 242 248 262 226 234 252 263 258 288 308 341 150 72 111 113 43 34 46 7 6 80 103 96 95 100 112 107 95 91 88 85 114 138